Regional Weather Roundup
Issued by NWS

Home | Current Version | Previous Version | Text Only | Print | Product List | Glossary Off
Versions: 1 2 3 4 5 6 7 8 9 10 11 12 13 14 15 16 17 18 19 20 21 22 23 24 25 26 27 28 29 30 31 32 33 34 35 36 37 38 39 40 41 42 43 44 45 46 47 48 49 50

000
ASUS43 KBIS 021510
RWRND

NORTH DAKOTA REGIONAL WEATHER ROUNDUP
NATIONAL WEATHER SERVICE BISMARCK ND
900 AM CST MON MAR 02 2015

NOTE: "FAIR" INDICATES FEW OR NO CLOUDS BELOW 12,000 FEET WITH NO
SIGNIFICANT WEATHER AND/OR OBSTRUCTIONS TO VISIBILITY.


NDZ001>003-009>011-017-021600-
NORTHWEST NORTH DAKOTA

CITY           SKY/WX    TMP DP  RH WIND       PRES   REMARKS
WILLISTON      PTSUNNY   18   9  68 S5        29.94F WCI  11
MINOT          SUNNY     15   8  73 S16       30.05F WCI  -1
MINOT AFB      SUNNY     13   9  86 SE13      30.05F WCI  -2
$$

NDZ018>021-031>035-040>046-021600-
SOUTHWEST NORTH DAKOTA

CITY           SKY/WX    TMP DP  RH WIND       PRES   REMARKS
BISMARCK       SUNNY     14  11  87 SE9       30.14F WCI   2
DICKINSON      SUNNY     17  11  77 S21G26    29.94F WCI   0
GARRISON         N/A     13  10  88 S13       30.05F WCI  -2
HETTINGER ARPT SUNNY     17   9  70 SE14      29.97F WCI   3
$$

NDZ004>008-012>016-024-026-027-054-021600-
NORTHEAST NORTH DAKOTA

CITY           SKY/WX    TMP DP  RH WIND       PRES   REMARKS
GRAND FORKS    MOSUNNY    4   0  83 SE9       30.31R WCI -10
GRND FRKS AFB  MOSUNNY   11   5  76 S7        30.30R WCI   1
DEVILS LAKE    SUNNY     12   5  73 S15       30.19F WCI  -4
$$

NDZ022-023-025-028>030-036>039-047>053-021600-
SOUTHEAST NORTH DAKOTA

CITY           SKY/WX    TMP DP  RH WIND       PRES   REMARKS
FARGO          MOSUNNY   11   4  73 S9        30.37R WCI  -2
JAMESTOWN      SUNNY     10   4  76 S12       30.24F WCI  -5
$$




USA.gov is the U.S. government's official web portal to all federal, state and local government web resources and services.